TimeEDT,TemperatureF,Dew PointF,Humidity,Sea Level PressureIn,VisibilityMPH,Wind Direction,Wind SpeedMPH,Gust SpeedMPH,PrecipitationIn,Events,Conditions,WindDirDegrees,DateUTC
12:51 AM,43.0,42.1,97,30.25,10.0,Calm,Calm,-,N/A,,Clear,0,2013-06-21 04:51:00
1:51 AM,42.1,39.9,92,30.24,10.0,Calm,Calm,-,N/A,,Clear,0,2013-06-21 05:51:00
2:51 AM,43.0,41.0,93,30.24,10.0,Calm,Calm,-,N/A,,Overcast,0,2013-06-21 06:51:00
3:51 AM,45.0,43.0,93,30.25,10.0,Calm,Calm,-,N/A,,Overcast,0,2013-06-21 07:51:00
4:51 AM,45.0,44.1,97,30.25,10.0,Calm,Calm,-,N/A,,Clear,0,2013-06-21 08:51:00
5:51 AM,48.0,46.0,93,30.25,10.0,Calm,Calm,-,N/A,,Partly Cloudy,0,2013-06-21 09:51:00
6:51 AM,51.1,48.0,89,30.25,10.0,Calm,Calm,-,N/A,,Overcast,0,2013-06-21 10:51:00
7:51 AM,54.0,50.0,86,30.26,10.0,SSW,4.6,-,N/A,,Overcast,210,2013-06-21 11:51:00
8:51 AM,59.0,46.9,64,30.27,10.0,WSW,8.1,-,N/A,,Mostly Cloudy,240,2013-06-21 12:51:00
9:51 AM,64.0,48.0,56,30.28,10.0,Variable,3.5,-,N/A,,Clear,0,2013-06-21 13:51:00
10:51 AM,69.1,48.9,49,30.28,10.0,Variable,5.8,-,N/A,,Clear,0,2013-06-21 14:51:00
11:51 AM,72.0,46.9,41,30.28,10.0,Calm,Calm,-,N/A,,Clear,0,2013-06-21 15:51:00
12:51 PM,73.9,48.0,40,30.27,10.0,NNW,9.2,-,N/A,,Clear,330,2013-06-21 16:51:00
1:51 PM,73.9,48.0,40,30.26,10.0,Variable,4.6,-,N/A,,Clear,0,2013-06-21 17:51:00
2:51 PM,73.9,46.9,38,30.25,10.0,Variable,3.5,-,N/A,,Scattered Clouds,0,2013-06-21 18:51:00
3:51 PM,75.0,48.0,38,30.24,10.0,SSW,8.1,-,N/A,,Mostly Cloudy,210,2013-06-21 19:51:00
4:51 PM,75.9,48.9,38,30.24,10.0,Variable,4.6,-,N/A,,Mostly Cloudy,0,2013-06-21 20:51:00
5:51 PM,77.0,50.0,39,30.23,10.0,Variable,3.5,-,N/A,,Mostly Cloudy,0,2013-06-21 21:51:00
6:51 PM,75.0,50.0,41,30.23,10.0,WNW,4.6,-,N/A,,Clear,290,2013-06-21 22:51:00
7:51 PM,71.1,51.1,49,30.23,10.0,Calm,Calm,-,N/A,,Clear,0,2013-06-21 23:51:00
8:51 PM,64.9,54.0,68,30.23,10.0,Calm,Calm,-,N/A,,Clear,0,2013-06-22 00:51:00
9:51 PM,57.0,53.1,87,30.23,10.0,Calm,Calm,-,N/A,,Clear,0,2013-06-22 01:51:00
10:51 PM,54.0,52.0,93,30.23,9.0,Calm,Calm,-,N/A,,Clear,0,2013-06-22 02:51:00
11:51 PM,53.1,51.1,93,30.22,9.0,Calm,Calm,-,N/A,,Clear,0,2013-06-22 03:51:00